Regional Weather Roundup
Issued by NWS Wilmington, NC

Home | Current Version | Previous Version | Text Only | Print | Product List | Glossary On
Versions: 1 2 3 4 5 6 7 8 9 10 11 12 13 14 15 16 17 18 19 20 21 22 23 24 25 26 27
000
ASUS42 KILM 271813
RWRILM
RWRILM
REGIONAL HOURLY WEATHER ROUNDUP
NATIONAL WEATHER SERVICE WILMINGTON NC
200 PM EDT SAT MAY 27 2017

NOTE: "FAIR" INDICATES FEW OR NO CLOUDS BELOW 12,000 FEET WITH NO
SIGNIFICANT WEATHER AND/OR OBSTRUCTIONS TO VISIBILITY.

...............WFO WILMINGTON COUNTY WARNING AREA...............

......COASTAL NC AND SC COUNTIES......

CITY           SKY/WX    TMP DP  RH WIND       PRES   REMARKS
WILMINGTON     SUNNY     89  65  44 W13       29.93F HX  91
N MYRTLE BEACH SUNNY     83  70  64 S14       29.95F
MYRTLE BEACH   SUNNY     84  70  61 VRB6      29.97F

......INLAND NC AND SC COUNTIES.......

CITY           SKY/WX    TMP DP  RH WIND       PRES   REMARKS
LUMBERTON      SUNNY     88  64  44 SW13      29.92F
ELIZABETHTOWN  SUNNY     89  63  42 SW7       29.93F
WHITEVILLE     MOSUNNY   87  66  49 SW8       29.93F
FLORENCE       MOSUNNY   88  67  49 SW12G22   29.95F HX  91
DARLINGTON     MOSUNNY   87  68  52 W13       29.95F HX  90
KINGSTREE      FAIR      86  64  48 SW13      29.96F
HARTSVILLE     FAIR      88  63  42 W12G20    29.95F
BENNETTSVILLE  FAIR      93  63  36 SW8       29.93F HX  94
CONWAY         FAIR      86  68  54 W7        29.95F
GEORGETOWN     FAIR      88  61  40 SW9       29.98F
MARION         FAIR      86  64  48 W12       29.95F

....................REST OF NORTH CAROLINA......................

.........EASTERN NC.........

CITY           SKY/WX    TMP DP  RH WIND       PRES   REMARKS
CAPE HATTERAS  SUNNY     81  68  64 SW12      29.94F
JACKSONVILLE   MOSUNNY   89  67  47 W13       29.92F HX  92
MOREHEAD CITY  SUNNY     81  70  69 SW16      29.94F
KENANSVILLE    MOSUNNY   88  66  48 W8        29.92F HX  90
NEW BERN       MOSUNNY   88  65  46 VRB7      29.92F HX  90
ELIZABETH CITY SUNNY     84  66  54 SW8       29.89F

.........CENTRAL NC.........

CITY           SKY/WX    TMP DP  RH WIND       PRES   REMARKS
RALEIGH DURHAM MOSUNNY   86  67  52 SW10      29.92F
ROCKY MOUNT    SUNNY     87  66  49 SW7       29.91F
ROANOKE RAPIDS NOT AVBL
FAYETTEVILLE   SUNNY     90  62  39 S10       29.92F HX  90
HOFFMAN        MOSUNNY   86  66  50 W8        29.93F

.........WESTERN NC.........

CITY           SKY/WX    TMP DP  RH WIND       PRES   REMARKS
CHARLOTTE      PTSUNNY   86  64  47 W10       29.96F
GREENSBORO     PTSUNNY   84  66  54 SW14      29.92F
HICKORY        NOT AVBL
BOONE          NOT AVBL
ASHEVILLE      NOT AVBL

.....................REST OF SOUTH CAROLINA.....................

.........EASTERN SC.........

CITY           SKY/WX    TMP DP  RH WIND       PRES   REMARKS
CHARLESTON     MOSUNNY   89  64  43 W12       29.99F HX  90
BEAUFORT MCAS  MOSUNNY   90  65  43 W15       30.00F HX  92
HILTON HEAD    SUNNY     90  63  40 SW12      30.02F HX  90

.........CENTRAL SC.........

CITY           SKY/WX    TMP DP  RH WIND       PRES   REMARKS
COLUMBIA       PTSUNNY   90  64  42 W16       29.97S HX  91
ORANGEBURG     SUNNY     89  63  41 W14G22    29.98F HX  90
SUMTER SHAW    MOSUNNY   89  63  41 W18G25    29.94F HX  90

.........WESTERN SC.........

CITY           SKY/WX    TMP DP  RH WIND       PRES   REMARKS
GREENVILLE     NOT AVBL
ROCK HILL      MOSUNNY   85  65  51 SW10      29.97F
ANDERSON       MOSUNNY   85  63  47 W13       30.01F
CLEMSON        NOT AVBL
GREENWOOD      MOSUNNY   84  63  49 W13       30.02F


...................COASTAL AND OFFSHORE REPORTS..................

................LOCAL PIERS AND NC RESERVE................


STATION/POSITION TIME  SKY/WX   TEMP    WIND        PRES    VSBY
                                AIR SEA DIR/SP/G
                 (UTC)          (F)     (DEG/KT/KT) (MB)    (MI)
JOHNY MRCER PIER 1748            77 76  180/ 19/ 21 1012.6F
NC RESRV MASNBRO 1645            84     230/  5     1015.0
OCEAN CREST PIER NOT AVBL
SPRINGMAID  PIER 1748                               1013.7F


................COASTAL AND OFFSHORE BUOYS................


STATION/POSITION TIME  SKY/WX   TEMP    WIND        PRES    VSBY
                                AIR SEA DIR/SP/G
                 (UTC)          (F)     (DEG/KT/KT) (MB)    (MI)
DIMNDSHOAL 41025 1750            76 78  230/ 14/ 16 1014.0F
WVE H/P(F/S)=  3/ 8 SWL H/P/D(F/S/D)=  2/140/ 8

CAPE LOOKOUT     1800            79     210/ 11/ 13 1013.7F
ONSLOW BAY 41036 NOT AVBL
ONSLOW BAY 41064 1708            77 78  230/ 14/ 17 1014.6F
ONSLOW BAY 41159 1743               78                N/A
WVE H/P(F/S)=  3/ 5

MASNBO INL 41110 1759               75                N/A
WVE H/P(F/S)=  3/ 3

WILM HARBR 41108 1747               76                N/A
WVE H/P(F/S)=  3/ 4

27SE WRITB 41037 1708            76 76  210/ 14/ 19 1013.8F
FRYING PAN 41013 1800            75 76  230/ 17/ 19 1015.0
SUNST NRSH 41024 1708            76 75  220/ 10/ 14 1014.6F
CAPRS NRSH 41029 1708            81 77  230/ 16/ 21 1015.7F
EDISTO     41004 1750            76 75  240/ 12/ 14 1016.3S
WVE H/P(F/S)=  3/ 4 SWL H/P/D(F/S/D)=  2/140/ 8



..........OFFSHORE BUOYS BEYOND 100 NM OFFSHORE...........
.....IN A TRIANGLE---HAT TO BERMUDA TO BAHAMAS TO HAT.....


STATION/POSITION TIME  SKY/WX   TEMP    WIND        PRES    VSBY
                                AIR SEA DIR/SP/G
                 (UTC)          (F)     (DEG/KT/KT) (MB)    (MI)
150E HAT   41001 1800            77 77  240/ 10/ 12 1015.1
W BERMUDA  41048 1800            76 76  270/  8/ 10 1017.0
ATLANTIC S 41049 1750            77 78  190/ 10/ 12 1020.3F
WVE H/P(F/S)=  3/ 7 SWL H/P/D(F/S/D)=  3/140/ 7

E BAHAMAS  41046 1800            79 80  100/  2/  4 1019.8
NE BAHAMAS 41047 1800            79 79  230/ 12/ 14 1018.3
120E CANVRL41010 1800            79 80  160/  2/  2 1018.0

END




USA.gov is the U.S. government's official web portal to all federal, state and local government web resources and services.